CZ-2C DEB

Satellite information

Favourite Embed

Satellite Type and Status

DEBRISIN ORBIT

Key statistics

Satellite CZ-2C DEB at a glance.

Uptime

4176

Days in orbit

Revolutions

≈ 14.4

Per day

Orbit

SSO

Sun Synchronous Orbit

Inclination

98.6

Latest

Satellite identification and parameters

Extended collection of information and parameters for CZ-2C DEB.

Object identification

Identified? True

Debris? True

Object name: CZ-2C DEB

International designator: 2014-014F

Object number (NORAD): 39629

Object ID (CCSDS): 39629

Country: PEOPLES REPUBLIC OF CHINA (PRC)

Current information (Y/N): Y

RCS size: SMALL

Orbital parameters

Period: 100.276 minutes

Inclination: 98.5881 deg

SMA: 7149.759 km

Apoapsis: 876.595 km

Periapsis: 666.654 km

RAAN: 207.0637 deg

Eccentricy: 0.01468172

Argument of periapsis: 181.8577 deg

Mean anomaly: 178.2082 deg

Mean motion: 14.36036999 rev/day

Mean motion (dot): 0.0000323 rev/day2

B* drag term: 0.00099672482 1/REarth

Two-line elements (TLE)

Creation date: Sept. 4, 2025, 4:29 a.m.

Reference frame: TEME

Reference center: EARTH

Epoch: Sept. 3, 2025, 8:19 p.m. UTC

TLE line 0: 0 CZ-2C DEB

TLE line 1: 1 39629U 14014F 25246.84679102 .00003230 00000-0 99672-3 0 9999

TLE line 2: 2 39629 98.5881 207.0637 0146817 181.8577 178.2082 14.36036999594522

Live tracking on map

Real-time ground track for satellite CZ-2C DEB.

In-orbit conjunctions

A list of the most updated potential collisions computed for object CZ-2C DEB.

Target Orbit TCA Probability of collision Miss distance Type
YAOGAN 2 DEB SSO 2025-05-15 11:12:25 0.0001574055 244.0 (m) DEBRIS
COSMOS 2322 LEO 2025-01-06 12:27:55 0.000540573 771.0 (m) PAYLOAD
FENGYUN 1C DEB SSO 2024-11-10 07:22:50 0.001216302 197.0 (m) DEBRIS

Associated space launch

CZ-2C DEB was lifted into orbit during the mission ‘Long March 2C | Shijian 11-06’, on board a Long March 2 space rocket.

The launch took place on March 31, 2014, 2:46 a.m. from Launch Area 4 (SLS-2 / 603).

For more information about the launch, click the button.

Launch to space Long March 2C | Shijian 11-06
Long March 2C | Shijian 11-06

Agency: N/A

Status: Launch Successful

Launch date: March 31, 2014, 2:46 a.m. UTC

Rocket: Long March 2

Launch pad: Launch Area 4 (SLS-2 / 603)

Location: Jiuquan Satellite Launch Center, People's Republic of China

...

Latest news about this satellite

There are no fresh news available about this satellite. Check back as we update our databases every day.


Newsletter sign-up

Weekly statistics, charts and insights to help you stay on top of the space industry.